2016-03-15 00:01:37 r, 18.99m,0000000003Hz,0000216758c,0000000.470s, 018.6C,00002191
2016-03-15 00:11:37 r, 18.84m,0000000002Hz,0000187850c,0000000.408s, 018.6C,00002191
2016-03-15 00:21:37 r, 19.02m,0000000002Hz,0000222790c,0000000.483s, 018.3C,00002191
2016-03-15 00:31:38 r, 19.17m,0000000001Hz,0000255154c,0000000.554s, 018.3C,00002191
2016-03-15 00:41:37 r, 19.06m,0000000002Hz,0000230461c,0000000.500s, 018.3C,00002191
2016-03-15 00:51:37 r, 19.13m,0000000002Hz,0000246768c,0000000.536s, 018.6C,00002191
2016-03-15 01:01:37 r, 19.23m,0000000002Hz,0000271690c,0000000.590s, 019.0C,00002191
2016-03-15 01:11:37 r, 19.28m,0000000001Hz,0000284006c,0000000.616s, 019.3C,00002191
2016-03-15 01:21:37 r, 19.25m,0000000002Hz,0000275461c,0000000.598s, 019.6C,00002191
2016-03-15 01:31:37 r, 19.41m,0000000001Hz,0000319723c,0000000.694s, 019.6C,00002191
2016-03-15 01:41:37 r, 19.49m,0000000002Hz,0000343421c,0000000.745s, 019.6C,00002191
2016-03-15 01:51:37 r, 19.06m,0000000002Hz,0000229421c,0000000.498s, 019.6C,00002191
2016-03-15 02:01:37 r, 19.06m,0000000002Hz,0000230769c,0000000.501s, 019.6C,00002191
2016-03-15 02:11:37 r, 18.96m,0000000002Hz,0000210164c,0000000.456s, 019.6C,00002191
2016-03-15 02:21:37 r, 19.36m,0000000001Hz,0000307107c,0000000.666s, 019.6C,00002191
2016-03-15 02:31:37 r, 19.19m,0000000002Hz,0000259157c,0000000.562s, 019.3C,00002191
2016-03-15 02:41:39 r, 19.59m,0000000001Hz,0000376208c,0000000.816s, 019.3C,00002191
2016-03-15 02:51:37 r, 19.01m,0000000003Hz,0000219745c,0000000.477s, 019.0C,00002191
2016-03-15 03:01:37 r, 18.93m,0000000003Hz,0000204521c,0000000.444s, 019.0C,00002191
2016-03-15 03:11:37 r, 19.25m,0000000001Hz,0000276109c,0000000.599s, 019.0C,00002191
2016-03-15 03:21:37 r, 19.36m,0000000002Hz,0000307151c,0000000.667s, 019.0C,00002191
2016-03-15 03:31:37 r, 19.43m,0000000002Hz,0000327287c,0000000.710s, 019.0C,00002191
2016-03-15 03:41:37 r, 19.61m,0000000001Hz,0000382975c,0000000.831s, 019.0C,00002191
2016-03-15 03:51:37 r, 19.61m,0000000001Hz,0000381747c,0000000.828s, 019.0C,00002191
2016-03-15 04:01:37 r, 19.93m,0000000001Hz,0000509856c,0000001.106s, 019.0C,00002191
2016-03-15 04:11:37 r, 19.72m,0000000001Hz,0000418493c,0000000.908s, 018.6C,00002191
2016-03-15 04:21:37 r, 19.71m,0000000001Hz,0000415813c,0000000.902s, 018.3C,00002191
2016-03-15 04:31:37 r, 19.58m,0000000001Hz,0000371416c,0000000.806s, 018.3C,00002191
2016-03-15 04:41:37 r, 19.66m,0000000001Hz,0000400345c,0000000.869s, 018.3C,00002191
2016-03-15 04:51:37 r, 19.70m,0000000002Hz,0000414812c,0000000.900s, 018.3C,00002191
2016-03-15 05:01:37 r, 19.55m,0000000001Hz,0000362953c,0000000.788s, 018.3C,00002191
2016-03-15 05:11:39 r, 19.53m,0000000001Hz,0000355069c,0000000.771s, 018.0C,00002191
2016-03-15 05:21:37 r, 19.33m,0000000002Hz,0000296580c,0000000.644s, 018.0C,00002191
2016-03-15 05:31:37 r, 19.48m,0000000001Hz,0000337969c,0000000.733s, 018.3C,00002191
2016-03-15 05:41:40 r, 19.70m,0000000001Hz,0000409679c,0000000.889s, 018.3C,00002191
2016-03-15 05:51:37 r, 19.70m,0000000001Hz,0000414621c,0000000.900s, 018.3C,00002191
2016-03-15 06:01:37 r, 19.61m,0000000001Hz,0000381147c,0000000.827s, 018.3C,00002191
2016-03-15 06:11:39 r, 19.92m,0000000000Hz,0000504992c,0000001.096s, 018.0C,00002191
2016-03-15 06:21:37 r, 19.74m,0000000001Hz,0000428047c,0000000.929s, 018.0C,00002191
2016-03-15 06:31:37 r, 19.68m,0000000001Hz,0000406309c,0000000.882s, 018.0C,00002191
2016-03-15 06:41:37 r, 19.19m,0000000002Hz,0000261005c,0000000.566s, 018.0C,00002191
2016-03-15 06:51:37 r, 18.42m,0000000003Hz,0000127699c,0000000.277s, 017.7C,00002191
2016-03-15 07:01:37 r, 16.95m,0000000014Hz,0000033148c,0000000.072s, 017.7C,00002191
2016-03-15 07:11:38 r, 14.70m,0000000109Hz,0000004188c,0000000.009s, 017.7C,00002191
2016-03-15 07:21:37 r, 12.47m,0000000873Hz,0000000000c,0000000.000s, 017.7C,00002191
2016-03-15 07:31:37 r, 11.91m,0000001450Hz,0000000000c,0000000.000s, 017.4C,00002191
2016-03-15 07:41:37 r, 09.50m,0000013338Hz,0000000000c,0000000.000s, 017.4C,00002191
2016-03-15 07:51:37 r, 08.35m,0000038904Hz,0000000000c,0000000.000s, 017.0C,00002191
2016-03-15 08:01:37 r, 07.81m,0000063890Hz,0000000000c,0000000.000s, 017.0C,00002191
2016-03-15 08:11:37 r, 08.77m,0000026237Hz,0000000000c,0000000.000s, 017.0C,00002191
2016-03-15 08:21:37 r, 08.46m,0000034905Hz,0000000000c,0000000.000s, 017.0C,00002191
2016-03-15 08:31:37 r, 07.60m,0000077463Hz,0000000000c,0000000.000s, 017.0C,00002191
2016-03-15 08:41:37 r, 06.79m,0000163413Hz,0000000000c,0000000.000s, 017.0C,00002191
2016-03-15 08:51:37 r, 00.00m,0000523720Hz,0000000000c,0000000.000s, 017.0C,00002191
2016-03-15 09:01:37 r, 06.54m,0000204181Hz,0000000000c,0000000.000s, 017.0C,00002191
2016-03-15 09:11:37 r, 05.94m,0000356128Hz,0000000000c,0000000.000s, 017.0C,00002191
2016-03-15 09:21:37 r, 00.00m,0000536598Hz,0000000000c,0000000.000s, 017.0C,00002191
2016-03-15 09:31:37 r, 00.00m,0000568794Hz,0000000000c,0000000.000s, 017.0C,00002191
2016-03-15 09:41:37 r, 00.00m,0000596121Hz,0000000000c,0000000.000s, 017.0C,00002191
2016-03-15 09:51:37 r, 00.00m,0000596025Hz,0000000000c,0000000.000s, 017.4C,00002191
2016-03-15 10:01:37 r, 00.00m,0000596086Hz,0000000000c,0000000.000s, 017.7C,00002191
2016-03-15 10:11:38 r, 00.00m,0000596030Hz,0000000000c,0000000.000s, 017.7C,00002191
2016-03-15 10:21:37 r, 00.00m,0000596061Hz,0000000000c,0000000.000s, 018.0C,00002191
2016-03-15 10:31:37 r, 00.00m,0000596023Hz,0000000000c,0000000.000s, 018.0C,00002191
2016-03-15 10:41:38 r, 00.00m,0000595950Hz,0000000000c,0000000.000s, 018.3C,00002191
2016-03-15 10:51:37 r, 00.00m,0000596069Hz,0000000000c,0000000.000s, 018.3C,00002191
2016-03-15 11:01:37 r, 00.00m,0000595973Hz,0000000000c,0000000.000s, 019.0C,00002191
2016-03-15 11:11:39 r, 00.00m,0000595851Hz,0000000000c,0000000.000s, 019.6C,00002191
2016-03-15 11:21:37 r, 00.00m,0000595720Hz,0000000000c,0000000.000s, 019.9C,00002191
2016-03-15 11:31:37 r, 00.00m,0000595762Hz,0000000000c,0000000.000s, 020.6C,00002191
2016-03-15 11:41:37 r, 00.00m,0000595715Hz,0000000000c,0000000.000s, 020.6C,00002191
2016-03-15 11:51:37 r, 00.00m,0000595848Hz,0000000000c,0000000.000s, 019.9C,00002191
2016-03-15 12:01:37 r, 00.00m,0000595773Hz,0000000000c,0000000.000s, 019.9C,00002191
2016-03-15 12:11:38 r, 00.00m,0000595862Hz,0000000000c,0000000.000s, 019.6C,00002191
2016-03-15 12:21:37 r, 00.00m,0000595807Hz,0000000000c,0000000.000s, 020.3C,00002191
2016-03-15 12:31:37 r, 00.00m,0000595812Hz,0000000000c,0000000.000s, 020.6C,00002191
2016-03-15 12:41:37 r, 00.00m,0000595773Hz,0000000000c,0000000.000s, 020.3C,00002191
2016-03-15 12:51:37 r, 00.00m,0000595675Hz,0000000000c,0000000.000s, 021.2C,00002191
2016-03-15 13:01:37 r, 00.00m,0000595563Hz,0000000000c,0000000.000s, 021.9C,00002191
2016-03-15 13:11:37 r, 00.00m,0000595577Hz,0000000000c,0000000.000s, 021.9C,00002191
2016-03-15 13:21:37 r, 00.00m,0000595582Hz,0000000000c,0000000.000s, 021.5C,00002191
2016-03-15 13:31:37 r, 00.00m,0000595680Hz,0000000000c,0000000.000s, 022.5C,00002191
2016-03-15 13:41:37 r, 00.00m,0000595322Hz,0000000000c,0000000.000s, 023.5C,00002191
2016-03-15 13:51:37 r, 00.00m,0000595214Hz,0000000000c,0000000.000s, 024.4C,00002191
2016-03-15 14:01:37 r, 00.00m,0000595207Hz,0000000000c,0000000.000s, 024.4C,00002191
2016-03-15 14:11:38 r, 00.00m,0000595244Hz,0000000000c,0000000.000s, 024.4C,00002191
2016-03-15 14:21:37 r, 00.00m,0000595296Hz,0000000000c,0000000.000s, 024.4C,00002191
2016-03-15 14:31:37 r, 00.00m,0000595201Hz,0000000000c,0000000.000s, 025.7C,00002191
2016-03-15 14:41:38 r, 00.00m,0000595201Hz,0000000000c,0000000.000s, 027.3C,00002191
2016-03-15 14:51:37 r, 00.00m,0000595175Hz,0000000000c,0000000.000s, 027.7C,00002191
2016-03-15 15:01:37 r, 00.00m,0000595197Hz,0000000000c,0000000.000s, 026.7C,00002191
2016-03-15 15:11:38 r, 00.00m,0000595290Hz,0000000000c,0000000.000s, 025.7C,00002191
2016-03-15 15:21:37 r, 00.00m,0000595266Hz,0000000000c,0000000.000s, 024.8C,00002191
2016-03-15 15:31:37 r, 00.00m,0000595204Hz,0000000000c,0000000.000s, 025.4C,00002191
2016-03-15 15:41:37 r, 00.00m,0000595203Hz,0000000000c,0000000.000s, 026.1C,00002191
2016-03-15 15:51:37 r, 00.00m,0000595200Hz,0000000000c,0000000.000s, 026.7C,00002191
2016-03-15 16:01:37 r, 00.00m,0000595209Hz,0000000000c,0000000.000s, 026.1C,00002191
2016-03-15 16:11:37 r, 00.00m,0000595191Hz,0000000000c,0000000.000s, 027.3C,00002191
2016-03-15 16:21:37 r, 00.00m,0000595231Hz,0000000000c,0000000.000s, 025.4C,00002191
2016-03-15 16:31:37 r, 00.00m,0000595405Hz,0000000000c,0000000.000s, 024.4C,00002191
2016-03-15 16:41:37 r, 00.00m,0000595624Hz,0000000000c,0000000.000s, 022.8C,00002191
2016-03-15 16:51:37 r, 00.00m,0000595600Hz,0000000000c,0000000.000s, 022.5C,00002191
2016-03-15 17:01:37 r, 00.00m,0000595631Hz,0000000000c,0000000.000s, 022.5C,00002191
2016-03-15 17:11:38 r, 00.00m,0000595703Hz,0000000000c,0000000.000s, 021.9C,00002191
2016-03-15 17:21:37 r, 00.00m,0000595914Hz,0000000000c,0000000.000s, 021.5C,00002191
2016-03-15 17:31:37 r, 00.00m,0000595843Hz,0000000000c,0000000.000s, 021.2C,00002191
2016-03-15 17:41:37 r, 00.00m,0000595849Hz,0000000000c,0000000.000s, 021.2C,00002191
2016-03-15 17:51:37 r, 00.00m,0000595858Hz,0000000000c,0000000.000s, 020.6C,00002191
2016-03-15 18:01:37 r, 00.00m,0000595973Hz,0000000000c,0000000.000s, 019.9C,00002191
2016-03-15 18:11:38 r, 00.00m,0000596055Hz,0000000000c,0000000.000s, 019.3C,00002191
2016-03-15 18:21:37 r, 00.00m,0000596080Hz,0000000000c,0000000.000s, 019.3C,00002191
2016-03-15 18:31:37 r, 00.00m,0000596007Hz,0000000000c,0000000.000s, 019.3C,00002191
2016-03-15 18:41:38 r, 00.00m,0000596139Hz,0000000000c,0000000.000s, 019.0C,00002191
2016-03-15 18:51:37 r, 00.00m,0000596126Hz,0000000000c,0000000.000s, 019.0C,00002191
2016-03-15 19:01:37 r, 00.00m,0000514843Hz,0000000000c,0000000.000s, 018.6C,00002191
2016-03-15 19:11:37 r, 06.23m,0000272473Hz,0000000000c,0000000.000s, 018.3C,00002191
2016-03-15 19:21:37 r, 06.59m,0000195423Hz,0000000000c,0000000.000s, 018.3C,00002191
2016-03-15 19:31:37 r, 07.30m,0000101594Hz,0000000000c,0000000.000s, 018.3C,00002191
2016-03-15 19:41:37 r, 08.44m,0000035751Hz,0000000000c,0000000.000s, 018.0C,00002191
2016-03-15 19:51:37 r, 10.00m,0000008507Hz,0000000000c,0000000.000s, 017.7C,00002191
2016-03-15 20:01:37 r, 12.27m,0000001042Hz,0000000000c,0000000.000s, 017.7C,00002191
2016-03-15 20:11:37 r, 14.34m,0000000155Hz,0000000000c,0000000.000s, 017.7C,00002191
2016-03-15 20:21:37 r, 16.13m,0000000029Hz,0000015594c,0000000.034s, 017.7C,00002191
2016-03-15 20:31:37 r, 17.11m,0000000012Hz,0000038560c,0000000.084s, 017.7C,00002191
2016-03-15 20:41:37 r, 17.69m,0000000007Hz,0000065118c,0000000.141s, 017.4C,00002191
2016-03-15 20:51:39 r, 18.05m,0000000005Hz,0000091135c,0000000.198s, 017.4C,00002191
2016-03-15 21:01:37 r, 18.13m,0000000005Hz,0000097981c,0000000.213s, 017.4C,00002191
2016-03-15 21:11:37 r, 18.14m,0000000005Hz,0000098768c,0000000.214s, 017.4C,00002191
2016-03-15 21:21:37 r, 18.10m,0000000005Hz,0000094847c,0000000.206s, 017.0C,00002191
2016-03-15 21:31:37 r, 18.27m,0000000004Hz,0000111283c,0000000.241s, 017.0C,00002191
2016-03-15 21:41:37 r, 18.31m,0000000004Hz,0000116171c,0000000.252s, 017.0C,00002191
2016-03-15 21:51:37 r, 18.18m,0000000004Hz,0000102820c,0000000.223s, 017.0C,00002191
2016-03-15 22:01:37 r, 18.26m,0000000004Hz,0000110661c,0000000.240s, 016.7C,00002191
2016-03-15 22:11:37 r, 18.46m,0000000004Hz,0000132409c,0000000.287s, 016.7C,00002191
2016-03-15 22:21:37 r, 18.27m,0000000004Hz,0000111608c,0000000.242s, 016.7C,00002191
2016-03-15 22:31:37 r, 18.37m,0000000004Hz,0000121908c,0000000.265s, 016.7C,00002191
2016-03-15 22:41:38 r, 18.51m,0000000003Hz,0000139345c,0000000.302s, 016.7C,00002191
2016-03-15 22:51:37 r, 18.75m,0000000003Hz,0000173420c,0000000.376s, 016.7C,00002191
2016-03-15 23:01:37 r, 18.66m,0000000003Hz,0000159399c,0000000.346s, 016.7C,00002191
2016-03-15 23:11:37 r, 18.60m,0000000003Hz,0000150548c,0000000.327s, 016.7C,00002191
2016-03-15 23:21:37 r, 18.72m,0000000002Hz,0000168797c,0000000.366s, 016.7C,00002191
2016-03-15 23:31:37 r, 18.68m,0000000002Hz,0000163599c,0000000.355s, 016.7C,00002191
2016-03-15 23:41:37 r, 18.85m,0000000002Hz,0000190045c,0000000.412s, 016.4C,00002191
2016-03-15 23:51:37 r, 18.72m,0000000002Hz,0000168910c,0000000.367s, 016.4C,00002191
